Tracking 29019 objects as of 13-Jun-2024
HD Live streaming from Space Station
objects crossing your sky now

ITALSAT 1

Track ITALSAT 1 now!
ITALSAT 1 is classified as:


NORAD ID: 21055
Int'l Code: 1991-003A
Perigee: 35,817.3 km
Apogee: 35,940.6 km
Inclination: 14.7 °
Period: 1,440.5 minutes
Semi major axis: 42249 km
RCS: 3.4358 m2 (large)
Launch date: January 15, 1991
Source: Italy (IT)
Launch site: FRENCH GUIANA (FRGUI)
Your satellite tracking list
Your tracking list is empty




NASA's NSSDC Master Catalog

Two Line Element Set (TLE):
1 21055U 91003A   24164.42209980 -.00000303  00000-0  00000-0 0  9994
2 21055  14.7239 357.0861 0014597  55.1804 311.8298  0.99968592109740
Source of the keplerian elements: AFSPC